Japanese version Home page |
Updated on June 29, 2024 |
|
Orbital ElementsEpoch 2024 Mar. 31.0 TT = JDT 2460400.5 T 2024 Aug. 30.91601 TT Rudenko q 4.4129168 (2000.0) P Q n 0.02874020 Peri. 94.46786 -0.96915127 -0.03237248 a 10.5554366 Node 83.81317 -0.07296322 -0.90921755 e 0.5819295 Incl. 14.22692 +0.23541917 -0.41506081 P 34.3 >From 68 observations 2023 Dec. 12-2024 June 17, mean residual 0".2.
|
Magnitudes Graphm1 = 11.0 + 5 log d + 10.0 log r
|
The orbital elements are published on M.P.E.C. 2024-M41.
|